Weather in Newquay

United Kingdom     50°24′54″N   5°04′07″W
В апреле 2022 года жителям России запретили посещать сайт meteo.paraplan.net по решению Генеральной прокуратуры. Аудитория сайта уменьшилась в 10 раз. Владельцы сайта не видят смысла в поддержке погодного сервера в таких условиях. Сайт будет закрыт в октябре.
temp.,
°C
wind,
m/s
gust,
m/s
humid.,
%
clouds,
%
prec.,
mm/h
press.,
hPa
HPBL,
m
3 october, mon
mon301:00+12ese2276100 0.0 102699
04:00+12se347650 0.0 1026115
07:00+12se46876 0.0 1025161
10:00+15se5782100 0.0 1024488
13:00+17sse5674100 0.0 1023510
16:00+17s567899 0.1 1022369
19:00+15s458798 0.1 1021199
22:00+14ssw479183 0.0 1020242
4 october, tue
tue401:00+13s5889100 0.0 1018272
04:00+14s61290100 0.0 1017389
07:00+15ssw81292100 0.0 1016540
10:00+16ssw81389100 0.0 1016524
13:00+18sw101380100 0.0 1015581
16:00+17ssw91485100 0.0 1014616
19:00+16ssw91591100 0.4 1013561
22:00+17ssw91691100 0.2 1012544
5 october, wed
wed501:00+16ssw101891100 0.2 1010551
04:00+16ssw122088100 0.0 1007679
07:00+16ssw142289100 0.3 1005998
10:00+14w131781100 0.7 10101339
13:00+15w1316740 1.0 10141382
16:00+14w1316645 0.1 10171684
19:00+14wnw1114659 0.2 10221423
22:00+14wnw1012603 0.0 10261229
6 october, thu
thu601:00+14wnw89650 0.0 1028908
04:00+14w79660 0.0 1029869
07:00+14wsw7107438 0.0 1030781
10:00+15wsw797511 0.0 1031936
13:00+16wsw787419 0.0 1031869
16:00+16wsw787645 0.0 1029821
19:00+14sw698511 0.0 1029571
22:00+14sw698957 0.1 1028504
7 october, fri
fri701:00+14sw69896 0.1 1027528
04:00+14sw7109016 0.1 1025555
07:00+14sw8118925 0.3 1024588
10:00+15sw898410 0.2 1024673
13:00+16wsw810785 0.2 1023803
16:00+15wsw89815 0.0 1022728
19:00+15wsw7986100 0.0 1021590
22:00+15wsw6989100 0.1 1022512